Air Resources Laboratory banner image
Air Resources Laboratory web site National Oceanic and Atmospheric Administration (NOAA)

id roundup


Office: BOI

ASUS45 KBOI 121710
RWRID

IDAHO REGIONAL WEATHER ROUNDUP
NATIONAL WEATHER SERVICE BOISE ID
1000 AM MST TUE DEC 12 2017

NOTE: "FAIR" INDICATES FEW OR NO CLOUDS BELOW 12000 FEET
WITH NO SIGNIFICANT WEATHER AND/OR OBSTRUCTIONS TO VISIBILITY

IDZ012-014-121800-
SOUTHWEST IDAHO


CITY           SKY/WX    TMP DP  RH WIND       PRES   REMARKS
BOISE          CLOUDY    23  21  92 CALM      30.67F FOG
CALDWELL       NOT AVBL
MOUNTAIN HOME  FOG       22  22 100 VRB2      30.68S VSB 1/2
$$

IDZ016-017-121800-
SOUTHCENTRAL IDAHO


CITY           SKY/WX    TMP DP  RH WIND       PRES   REMARKS
BURLEY         FOG       20  17  88 CALM      30.59R VSB 1/4
JEROME         HAZE      24  18  77 CALM      30.61S VSB<1/4
TWIN FALLS     FOG       22  19  89 VRB3      30.60S VSB<1/4
$$

IDZ019>023-121800-
SOUTHEAST IDAHO


CITY           SKY/WX    TMP DP  RH WIND       PRES   REMARKS
IDAHO FALLS    CLOUDY    14  12  92 N3        30.57S
POCATELLO      CLOUDY    19  15  84 CALM      30.58R
REXBURG        CLOUDY    17  10  74 N3        30.57R
$$

IDZ006-010-011-018-031-032-121800-
CENTRAL IDAHO MOUNTAINS


CITY           SKY/WX    TMP DP  RH WIND       PRES   REMARKS
MCCALL         FOG       10   8  92 CALM      30.52S VSB 3/4
HAILEY         SUNNY     27  12  54 NW5       30.55S WCI  21
STANLEY          N/A      2  -2  83 CALM      30.59F
SALMON         CLOUDY    13  11  92 N6        30.69R FOG     WCI   4
CHALLIS        SUNNY     12   7  80 CALM      30.59S
$$

IDZ002-004-006-007-026-121800-
NORTHERN IDAHO


CITY           SKY/WX    TMP DP  RH WIND       PRES   REMARKS
LEWISTON       MOSUNNY   28  23  81 E5        30.60F WCI  23
LOWELL           N/A     28  25  88 CALM      30.66R
COEUR D'ALENE  CLOUDY    27  26  96 W3        30.56R FOG
MULLAN PASS    SUNNY     32   9  38 SW7       30.39S WCI  26
$$




Office: LKN ASUS65 KLKN 121305 RTPLKN Regional Temperature And Precipitation Table...Early Morning National Weather Service Elko NV 505 AM PST Tue Dec 12 2017 ***Automated Airport Stations*** Values represent lows over the last 12 hours... Highs over the last 24 hours and precipitation over the last 24 hours...ending at 4 AM PST/5 AM PDT today. .BR LKN 1212 P DH04/TAIRZX/DH04/TAIRZP/PPDRZZ/SFDRZZ/SDIRZZ : :ID Station Elev / Max / Min / Pcpn / :.................................................................... : EKO : Elko ASOS 5074 : 42 / 10 / 0.00 / ELY : Ely ASOS 6262 : 50 / 11 / 0.00 / P68 : Eureka ASOS 5936 : 46 / 9 / 0.00 / TPH : Tonopah ASOS 5395 : 55 / 17 / 0.00 / ENV : Wendover AWOS 4236 : 35 / 9 / 0.00 / WMC : Winnemucca ASOS 4314 : 46 / 2 / 0.00 / .END ***Manual synoptic reporting stations in north and central Nevada*** Values reflect the previous 24 hours ending at 4 AM PST/5 AM PDT *Snow stations may only report during periods of snowfall* .BR LKN 1212 P DH04/TAIRZX/TAIRZN/PPDRZZ/SFDRZZ/SDIRZZ : Snow Snow :ID Station Elev Max / Min / Pcpn / Fall / Dpth :.................................................................... : TLKN2 : Elko NWS Office 5235 : 42 / 6 / 0.00 / 0.0 / T TELN2 : Ely Snow 6487 : M / M / M / M / M TWIN2 : Winnemucca Snow 4355 : M / M / M / M / M .END ***Cooperative stations in north and central Nevada*** Values reflect the previous 24 hours Report time as indicated .BR LKN 1212 P DH04/TAIRZX/TAIRZN/PPDRZZ/SFDRZZ/SDIRZZ : Snow Snow :ID Station Elev Time / Max / Min / Pcpn / Fall / Dpth :.................................................................... : MOMN2 : Moorman Ranch 6539 5 AM: 57 / 6 / 0.00 / 0.0 / 0 .END M = Missing data T = Trace amounts ASOS = Automated Surface Observing System AWOS = Automated Weather Observation System NWS = National Weather Service DCP = Data Collection Platform These data are preliminary and have not undergone final quality control (QC) by NCEI. Therefore, these data are subject to revision. Final and certified data can be accessed at the National Centers For Environmental Information (NCEI) - www.ncei.noaa.gov $$